Overview Statistics Trail Chart Weather Telemetry Raw packets
 

This is the latest recevied weather packets stored in our database for station/object KH6DH-13. If no packets are shown the sender has not sent any weather packets the latest 10 day(s).

<< 54 55 56 57 58 >>
Time Temp. Humidity Pressure Rain* Wind** Luminosity Snow
1787838128 25° C - - 0 mm 0.89 m/s, 6° - -
1787837527 25° C - - 0 mm 2.24 m/s, 44° - -
1787836926 25° C - - 0 mm 0.45 m/s, 94° - -
1787836321 25° C - - 0 mm 0.45 m/s, 34° - -
1787835720 25° C - - 0 mm 2.24 m/s, 60° - -
1787835119 25° C - - 0 mm 0.45 m/s, 70° - -
1787834518 25° C - - 0 mm 1.34 m/s, 21° - -
1787833917 25° C - - 0 mm 1.34 m/s, 30° - -
1787833316 25° C - - 0 mm 1.34 m/s, 24° - -
1787832715 25° C - - 0 mm 2.24 m/s, 66° - -
1787832114 25° C - - 0 mm 0.89 m/s, 52° - -
1787831513 25° C - - 0 mm 0.89 m/s, 108° - -
1787830912 25° C - - 0 mm 0.89 m/s, 79° - -
1787830311 25.56° C - - 0 mm 0.89 m/s, 24° - -
1787829710 25.56° C - - 0 mm 0 m/s - -
1787829109 25.56° C - - 0 mm 1.79 m/s, 111° - -
1787828508 25.56° C - - 0 mm 1.34 m/s, 51° - -
1787827907 25.56° C - - 0 mm 0 m/s - -
1787827306 25.56° C - - 0 mm 1.34 m/s, 103° - -
1787826705 25.56° C - - 0 mm 1.79 m/s, 15° - -
1787826101 25° C - - 0 mm 0.89 m/s, 276° - -
1787825498 25.56° C - - 0 mm 0 m/s - -
1787824894 25.56° C - - 0 mm 1.79 m/s, 108° - -
1787824290 25° C - - 0 mm 0.89 m/s, 48° - -
1787823686 25.56° C - - 0 mm 0 m/s - -

* Rain latest hour (hover to see other rain measurements)
** Current wind speed in m/s (hover to see current wind gust speed)